TimeMDT,TemperatureF,Dew PointF,Humidity,Sea Level PressureIn,VisibilityMPH,Wind Direction,Wind SpeedMPH,Gust SpeedMPH,PrecipitationIn,Events,Conditions,WindDirDegrees,DateUTC
12:56 AM,45.0,28.0,52,29.78,-9999.0,SSW,11.5,-,N/A,,Unknown,210,2012-10-08 06:56:00
1:56 AM,46.9,28.0,48,29.76,-9999.0,SSW,13.8,-,N/A,,Unknown,210,2012-10-08 07:56:00
2:56 AM,48.0,28.0,46,29.73,-9999.0,WSW,15.0,-,N/A,,Unknown,240,2012-10-08 08:56:00
3:56 AM,51.1,27.0,39,29.70,-9999.0,WSW,15.0,-,N/A,,Unknown,250,2012-10-08 09:56:00
4:56 AM,55.0,27.0,34,29.70,-9999.0,West,23.0,29.9,N/A,,Unknown,270,2012-10-08 10:56:00
5:56 AM,52.0,28.0,40,29.73,-9999.0,WNW,16.1,-,N/A,,Unknown,290,2012-10-08 11:56:00
6:56 AM,50.0,30.9,48,29.75,-9999.0,WNW,16.1,-,N/A,,Unknown,290,2012-10-08 12:56:00
7:56 AM,51.1,35.1,54,29.77,-9999.0,WNW,18.4,24.2,N/A,,Unknown,300,2012-10-08 13:56:00
8:56 AM,53.1,37.0,55,29.78,-9999.0,NW,19.6,28.8,N/A,,Unknown,310,2012-10-08 14:56:00
9:56 AM,55.9,39.0,53,29.77,-9999.0,NW,24.2,33.4,N/A,,Unknown,320,2012-10-08 15:56:00
10:56 AM,55.0,39.9,57,29.80,-9999.0,NW,20.7,31.1,N/A,,Unknown,320,2012-10-08 16:56:00
11:56 AM,57.9,39.0,49,29.80,-9999.0,NW,23.0,28.8,N/A,,Unknown,310,2012-10-08 17:56:00
12:56 PM,57.9,37.9,47,29.79,-9999.0,NW,18.4,26.5,N/A,,Unknown,310,2012-10-08 18:56:00
1:56 PM,55.9,37.9,51,29.79,-9999.0,NW,19.6,32.2,N/A,,Unknown,320,2012-10-08 19:56:00
2:56 PM,53.1,39.9,61,29.81,-9999.0,WNW,27.6,33.4,N/A,,Unknown,300,2012-10-08 20:56:00
3:56 PM,52.0,39.9,63,29.80,-9999.0,West,19.6,26.5,N/A,,Unknown,280,2012-10-08 21:56:00
4:56 PM,52.0,41.0,66,29.80,-9999.0,West,16.1,-,N/A,,Unknown,280,2012-10-08 22:56:00
5:56 PM,50.0,42.1,74,29.82,-9999.0,West,11.5,-,N/A,,Unknown,280,2012-10-08 23:56:00
6:56 PM,50.0,41.0,71,29.84,-9999.0,WNW,11.5,-,N/A,,Unknown,290,2012-10-09 00:56:00
7:56 PM,48.9,42.1,77,29.85,-9999.0,West,10.4,-,N/A,,Unknown,270,2012-10-09 01:56:00
8:56 PM,48.0,41.0,77,29.86,-9999.0,West,12.7,-,N/A,,Unknown,280,2012-10-09 02:56:00
9:56 PM,46.9,37.0,68,29.88,-9999.0,WNW,11.5,-,N/A,,Unknown,300,2012-10-09 03:56:00
10:56 PM,45.0,30.9,58,29.89,-9999.0,NW,8.1,-,N/A,,Unknown,310,2012-10-09 04:56:00
11:56 PM,45.0,30.0,56,29.90,-9999.0,NW,19.6,25.3,N/A,,Unknown,310,2012-10-09 05:56:00